This demonstration page uses our WeatherBlox Daily Observations layout. Learn more.

Left ArrowRight Arrow

38.80484, -77.04692

Hourly Observations for August 4, 2020

Temp ( °F °C ) Dew Point ( °F °C ) Humidity (%) Winds ( mph kmh ) Pressure ( in mb ) Visibility ( mi km ) Precip ( " mm )
12:09 am 00:09 Cloudy with Light Rain 75 23.9 73 22.8 94 94 SE 6 9 30.02 1017 10 16 0.01 0.25
12:52 am 00:52 Cloudy with Light Rain 74 23.3 71 21.7 91 91 SSE 8 13 30.01 1016 10 16 0.02 0.51
1:52 am 01:52 Cloudy with Light Rain 73 22.8 70 21.1 90 90 ESE 6 9 29.98 1015 10 16 0.02 0.51
2:52 am 02:52 Cloudy with Light Rain 73 22.8 70 21.1 90 90 E 7 11 29.97 1015 7 11 0.08 2.03
3:13 am 03:13 Cloudy with Heavy Rain 73 22.8 70 21.1 90 90 ESE 7 11 29.97 1015 4 6 0.06 1.52
3:52 am 03:52 Cloudy with Rain 72 22.2 70 21.1 94 94 E 6 9 29.94 1014 5 8 0.23 5.84
3:59 am 03:59 Cloudy with Rain 72 22.2 70 21.1 94 94 E 6 9 29.94 1014 6 10 0.01 0.25
4:52 am 04:52 Cloudy with Rain 72 22.2 70 21.1 94 94 NNE 9 15 29.89 1012 5 8 0.13 3.30
5:52 am 05:52 Cloudy with Rain 72 22.2 70 21.1 94 94 N 15 24 29.83 1010 5 8 0.16 4.06
6:52 am 06:52 Cloudy with Heavy Rain 71 21.7 69 20.6 94 94 N 18 30 29.76 1008 2 3 0.24 6.10
7:04 am 07:04 Cloudy with Rain 71 21.7 69 20.6 94 94 NNW 21 33 29.73 1007 3 5 0.06 1.52
7:36 am 07:36 Cloudy with Heavy Rain 71 21.7 68 20 90 90 NNW 16 26 29.72 1006 2 3 0.16 4.06
7:52 am 07:52 Cloudy with Heavy Rain 70 21.1 68 20 93 93 NW 18 30 29.71 1006 1 2 0.37 9.40
8:01 am 08:01 Cloudy with Heavy Rain 70 21.1 68 20 93 93 NNW 18 30 29.71 1006 1 1 0.15 3.81
8:08 am 08:08 Cloudy with Heavy Rain 70 21.1 68 20 93 93 NNW 23 37 29.71 1006 1 1 0.27 6.86
8:27 am 08:27 Cloudy with Heavy Rain 70 21.1 68 20 93 93 NNW 25 41 29.71 1006 1 2 0.64 16.26
8:52 am 08:52 Cloudy with Heavy Rain 70 21.1 68 20 93 93 NNW 24 39 29.70 1006 2 2 0.89 22.61
9:11 am 09:11 Cloudy with Heavy Rain 70 21.1 67 19.4 90 90 NNW 25 41 29.67 1005 2 3 0.13 3.30
9:20 am 09:20 Cloudy with Heavy Rain 70 21.1 67 19.4 90 90 NW 23 37 29.66 1004 2 3 0.18 4.57
9:30 am 09:30 Cloudy with Rain 70 21.1 67 19.4 90 90 NNW 22 35 29.66 1004 3 5 0.24 6.10
9:52 am 09:52 Cloudy with Rain 71 21.7 68 20 90 90 N 23 37 29.65 1004 4 6 0.29 7.37
10:08 am 10:08 Cloudy with Light Rain 72 22.2 68 20 87 87 N 24 39 29.65 1004 7 11 0.01 0.25
10:44 am 10:44 Cloudy with Light Rain 73 22.8 68 20 84 84 W 13 20 29.72 1006 10 16 0.01 0.25
10:52 am 10:52 Cloudy with Light Rain 74 23.3 70 21.1 88 88 W 13 20 29.73 1007 10 16 0.01 0.25
11:10 am 11:10 Cloudy with Light Rain 76 24.4 70 21.1 82 82 WNW 14 22 29.74 1007 10 16 0.00 0.00
11:21 am 11:21 Mostly Cloudy 77 25 70 21.1 79 79 W 15 24 29.76 1008 10 16 0.00 0.00
11:52 am 11:52 Mostly Cloudy 77 25 69 20.6 77 77 W 14 22 29.78 1009 10 16 0.00 0.00
12:52 pm 12:52 Mostly Cloudy 78 25.6 69 20.6 74 74 W 15 24 29.80 1009 10 16 0.00 0.00
1:37 pm 13:37 Mostly Cloudy 82 27.8 69 20.6 65 65 W 17 28 29.82 1010 10 16 0.00 0.00
1:52 pm 13:52 Mostly Cloudy 83 28.3 68 20 61 61 W 13 20 29.82 1010 10 16 0.00 0.00
2:52 pm 14:52 Mostly Cloudy 86 30 69 20.6 57 57 W 16 26 29.83 1010 10 16 0.00 0.00
3:52 pm 15:52 Mostly Cloudy 86 30 68 20 55 55 SSW 12 19 29.83 1010 10 16 0.00 0.00
4:52 pm 16:52 Mostly Cloudy 87 30.6 66 18.9 50 50 SW 13 20 29.83 1010 10 16 0.00 0.00
5:52 pm 17:52 Mostly Cloudy 86 30 69 20.6 57 57 SSW 13 20 29.84 1011 10 16 0.00 0.00
5:56 pm 17:56 Mostly Cloudy with Nearby Thunderstorms 86 30 69 20.6 57 57 SSW 14 22 29.85 1011 10 16 0.00 0.00
6:11 pm 18:11 Mostly Cloudy with Light Rain 83 28.3 70 21.1 65 65 SSW 16 26 29.85 1011 10 16 0.00 0.00
6:52 pm 18:52 Partly Cloudy 79 26.1 69 20.6 72 72 S 12 19 29.86 1011 10 16 0.00 0.00
7:52 pm 19:52 Partly Cloudy 79 26.1 69 20.6 72 72 S 7 11 29.87 1012 10 16 0.00 0.00
8:52 pm 20:52 Partly Cloudy 79 26.1 70 21.1 74 74 Calm 29.91 1013 10 16 0.00 0.00
9:52 pm 21:52 Mostly Cloudy 78 25.6 73 22.8 85 85 WNW 13 20 29.95 1014 10 16 0.00 0.00
10:00 pm 22:00 Mostly Cloudy with Rain 77 25 71 21.7 82 82 VRB 5 7 29.93 1013 6 10 0.01 0.25
10:08 pm 22:08 Cloudy with Light Rain 78 25.6 71 21.7 79 79 W 10 17 29.94 1014 9 14 0.01 0.25
10:17 pm 22:17 Cloudy with Heavy Rain 77 25 70 21.1 79 79 W 12 19 29.95 1014 6 10 0.02 0.51
10:29 pm 22:29 Cloudy with Light Rain 76 24.4 69 20.6 79 79 W 3 6 29.95 1014 9 14 0.06 1.52
10:52 pm 22:52 Mostly Cloudy 77 25 69 20.6 77 77 W 3 6 29.94 1014 10 16 0.06 1.52
11:52 pm 23:52 Mostly Cloudy 75 23.9 71 21.7 88 88 WSW 3 6 29.95 1014 10 16 0.00 0.00

Powered by AerisWeather